Flag for Germany Weather past 2 weeks in Görlitz, Saxony, Germany

Now
54 °F

Cool.


Feels Like: 54 °F
Forecast: 49 / 66 °F
Wind: 1 mph from Southeast

Location: Liberec

Current Time: May 29, 2015 at 2:55:54 AM

Latest Report: May 29, 2015 at 2:00 AM


Visibility: 13 mi

Pressure: 29.94 "Hg

Humidity: 58%

Dew point: 40 °F

Location of GörlitzLocation

Historic Weather in Görlitz — Graph

°F

Görlitz temperature yesterday

Maximum temperature yesterday: 62 °F (at 6:00 PM)
Minimum temperature yesterday: 39 °F (at 12:00 AM)
Average temperature yesterday: 53 °F

Past Weeks' High & Low Weather Summary

 TemperatureHumidityPressure
High67 °F (May 25, 12:00 PM)98% (May 15, 6:00 AM)30.34 "Hg (May 15, 6:00 AM)
Low31 °F (May 15, 5:00 AM)30% (May 15, 5:00 PM)29.68 "Hg (May 19, 4:00 AM)
Average52 °F68%30.03 "Hg
* Reported May 14 1:00 AM — May 29 1:00 AM, Görlitz, Weather by CustomWeather, © 2015

Note: Actual official high and low records may vary slightly from our data, if they occured in-between our weather recording intervals... More about our weather records

Advertising

Görlitz weather history for previous 24 hours

 ConditionsComfort  
Time TempWeatherWind HumidityBarometerVisibility
1:00 AM
Fri, May 29
55 °FRefreshingly cool.3 mph54%29.93 "Hg12 mi
11:00 PM
Thu, May 28
55 °FRefreshingly cool.3 mph54%29.94 "Hg12 mi
10:00 PM56 °FPassing clouds.2 mph53%29.94 "Hg19 mi
9:00 PM58 °FPassing clouds.2 mph49%29.93 "Hg22 mi
8:00 PM61 °FPartly sunny.3 mph42%29.93 "Hg19 mi
7:00 PM62 °FRefreshingly cool.3 mph40%29.93 "Hg12 mi
6:00 PM62 °FRefreshingly cool.5 mph38%29.94 "Hg12 mi
5:00 PM61 °FPartly sunny.5 mph41%29.96 "Hg19 mi
4:00 PM62 °FScattered clouds.5 mph37%29.98 "Hg19 mi
3:00 PM61 °FPartly sunny.5 mph40%29.99 "Hg19 mi
2:00 PM58 °FPartly sunny.6 mph44%30.01 "Hg19 mi
1:00 PM58 °FPartly sunny.2 mph41%30.03 "Hg19 mi
12:00 PM53 °FOvercast.5 mph52%30.07 "Hg19 mi
11:00 AM53 °FOvercast.5 mph51%30.08 "Hg19 mi
10:00 AM53 °FPartly sunny.3 mph56%30.09 "Hg19 mi
9:00 AM52 °FOvercast.1 mph62%30.10 "Hg19 mi
8:00 AM48 °FOvercast.1 mph76%30.11 "Hg16 mi
7:00 AM46 °FCool.1 mph83%30.11 "Hg12 mi
4:00 AM43 °FQuite cool.1 mph90%30.13 "Hg12 mi
3:00 AM41 °FQuite cool.1 mph89%30.14 "Hg10 mi
2:00 AM42 °FQuite cool.1 mph90%30.14 "Hg11 mi
Weather by CustomWeather, © 2015

See weather overviewHow to use our weather pages